Meteo Giornale » Osservazioni meteo Giappone » Hyakuri Ab
ore: 22:00 - Osservazioni Meteo Hyakuri Ab
Lat. 36° 11' N Lon. 140° 25' E Alt. 32 metri s.l.m.
23 °C
Molto Nuvoloso
Temp. 24 Ore
22 °C
26 °C
Nord-Est
9.3 Km/h
Dew point 23 °C
Umidità 100 %
Visibilità 10 Km
Il sole sorge alle ore 05:09
Il sole tramonta alle ore 18:07
| Data e Ora | Cielo e Fenomeni | T °C | DP °C | Um. % | Pres. hPa | Vis. km | Vento km/h | |
|---|---|---|---|---|---|---|---|---|
| Oggi h: 22:00 | Molto Nuvoloso | 23 | 23 | 100 | 1017 | 10 | NE 9.3 | |
| Oggi h: 21:00 | Molto Nuvoloso | 23 | 23 | 100 | 1017 | 10 | E/NE 9.3 | |
| Oggi h: 20:00 | Molto Nuvoloso | 23 | 23 | 100 | 1017 | 10 | E/NE 9.3 | |
| Oggi h: 19:00 | Molto Nuvoloso | 23 | 23 | 100 | 1016 | 10 | E/NE 9.3 | |
| Oggi h: 18:00 | Molto Nuvoloso | 24 | 23 | 94 | 1016 | 10 | E/NE 11.1 | |
| Oggi h: 17:00 | Molto Nuvoloso | 25 | 23 | 88 | 1016 | 10 | E 13 | |
| Oggi h: 16:00 | Molto Nuvoloso | 26 | 23 | 83 | 1016 | 10 | E 9.3 | |
| Oggi h: 15:00 | Molto Nuvoloso | 26 | 23 | 83 | 1016 | 10 | E 11.1 | |
| Oggi h: 14:00 | Molto Nuvoloso | 26 | 23 | 83 | 1016 | 10 | E/NE 13 | |
| Oggi h: 13:00 | Pioviggine | 25 | 23 | 88 | 1016 | 10 | NE 13 | |
| Oggi h: 12:00 | Molto Nuvoloso | 26 | 23 | 83 | 1016 | 10 | NE 13 | |
| Oggi h: 11:00 | Molto Nuvoloso | 26 | 23 | 83 | 1017 | 10 | N/NE 14.8 | |
| Oggi h: 10:00 | Molto Nuvoloso | 25 | 22 | 83 | 1017 | 10 | N/NE 13 | |
| Oggi h: 09:00 | Molto Nuvoloso | 24 | 22 | 88 | 1017 | 10 | N/NE 11.1 | |
| Oggi h: 08:00 | Molto Nuvoloso | 23 | 21 | 88 | 1017 | 10 | N 9.3 | |
| Oggi h: 07:00 | Molto Nuvoloso | 23 | 21 | 88 | 1017 | 10 | N 9.3 | |
| Oggi h: 06:00 | Molto Nuvoloso | 22 | 22 | 100 | 1016 | 10 | N 5.5 | |
| Oggi h: 05:00 | Molto Nuvoloso | 22 | 21 | 94 | 1016 | 10 | N 3.7 | |
| Oggi h: 04:00 | Molto Nuvoloso | 22 | 22 | 100 | 1017 | 10 | N 5.5 | |
| Oggi h: 03:00 | Molto Nuvoloso | 22 | 21 | 94 | 1017 | 10 | N 5.5 | |
| Oggi h: 02:00 | Molto Nuvoloso | 22 | 21 | 94 | 1016 | 10 | N 7.4 | |
| Oggi h: 01:00 | Molto Nuvoloso | 22 | 22 | 100 | 1016 | 10 | NE 11.1 | |
| Oggi h: 00:00 | Molto Nuvoloso | 22 | 21 | 94 | 1017 | 10 | NE 14.8 | |
| Ieri h: 23:00 | Molto Nuvoloso | 23 | 21 | 88 | 1017 | 10 | N/NE 11.1 | |



